Starlink 4622

operational
NORAD ID: 53648 Int'l Des: 2022-105 Owner: SPXS Country: US Constellation: starlink
LEOCIRCULARRETROGRADESSO

About Starlink 4622

Description loading...

Live Position

Loading 3D Globe...

Upcoming Passes

Altitude History

Altitude vs Time

uPlot chart will show altitude changes over time

Two-Line Element Set

1 53648U 22105A 26035.65205034 -.00000152 00000-0 -72710-5 0 9999
2 53648 97.6020 277.8605 0000854 102.8145 257.3175 15.01260971188284
Epoch: Feb 4, 2026 • Age: 14 hours

Current Status

Altitude 590.8 km
Velocity 7.56 km/s
Sub-Earth Point -74.82°S, 86.77°E
Launch Date Aug 31, 2022
Age 3.4 years
Type internet

Technical Details

Classification Payload
Mass 300.00 kg
Dry Mass 290.00 kg
Total Mass 300.00 kg
Length 0.20 m
Diameter 2.80 m
Span 9.00 m
Shape Box + pan
Manufacturer SPXS
Bus Type Starlink
Phase Status In Orbit
Owner/State SPXS/US

Large Constellations

Loading constellations...